Weather in Mariinskiy

Russia / Chelyabinsk Oblast     52°19′38″N   61°00′30″E
temp.,
°C
wind,
m/s
gust,
m/s
humid.,
%
clouds,
%
prec.,
mm/h
press.,
hPa
HPBL,
m
14 may, fri
fri1423:00+21nw353415 0.0 102573
02:00+19nw34332 0.0 102550
05:00+17nnw33402 0.0 102634
08:00+22nnw22355 0.0 1026188
11:00+27ne12272 0.0 10261351
14:00+29nne11215 0.0 10252861
17:00+29nw01205 0.0 10243231
20:00+27s112648 0.0 102415
15 may, sat
sat1523:00+22s46365 0.0 102598
02:00+20sw33390 0.0 102435
05:00+18nw23390 0.0 102515
08:00+23wnw22320 0.0 1025196
11:00+27w22230 0.0 10241337
14:00+30w33195 0.0 10233226
17:00+30w54187 0.0 10223320
20:00+26wnw45230 0.0 102278
16 may, sun
sun1623:00+23wnw33252 0.0 102222
02:00+20nw23300 0.0 102215
05:00+18n22404 0.0 102311
08:00+23n22365 0.0 1024223
11:00+28nnw00255 0.0 10231076
14:00+30s121733 0.0 10222987
17:00+31ssw1214100 0.0 10213511
20:00+28sse112194 0.0 102012
17 may, mon
mon1723:00+23wsw222719 0.0 102114
02:00+21wnw34325 0.0 102139
05:00+20wnw33372 0.0 102122
08:00+24nw35365 0.0 1021250
11:00+30nw34194 0.0 10212399
14:00+32w441777 0.0 10193677
17:00+27s9929100 0.0 1018662
20:00+21se71151100 0.3 1020265
18 may, tue
tue1823:00+20w465245 1.1 1020108
02:00+19wnw345633 0.0 101850
05:00+18nw33605 0.0 101842
08:00+22n234710 0.0 1018332
11:00+27nne2332100 0.0 10171179
14:00+29nne232552 0.0 10163209
17:00+28nnw232749 0.1 10151030
20:00+26wsw343416 0.1 101567